ONEWEB-0697, 61603

Orbit data source: Space-Track

ONEWEB-0697, 61603 is a payload satellite owned by Eut. One Web (UK) in LEO that was launched on Sun, 20 Oct 2024 UTC via an FALCON 9 launch vehicle from the Air Force Western Test Range (AFWTR). Payload-class satellites include a variety of spacecraft equipped with specific instruments for various scientific and technological missions. These include communications satellites like Starlink; space stations such as the ISS; scientific satellites like the Hubble; Earth observation satellites from companies like Planet Labs, Umbra, and HawkEye 360; GPS; miniature CubeSats for education and research; and military/defense satellites.

Loading next visibility...
Identifier
61603, 2024-188K
Orbit
LEO
Last TLE update
12 hours ago
Origin
Manufacturer
One Web
Mission
Operational Commercial Communications
Bus & Motor
ARROW, Unknown motor
Mass
148 kg wet, ~140 kg dry
Launch date (UTC)
2024-10-20 (8 months ago)
Launch vehicle
FALCON 9
Launch site
Air Force Western Test Range (AFWTR)
Object type
Payload
Rocket body
Debris
Shape & HBR
Trap Box + 2 Pan, 5 m
Radar Cross Section
2.032 m², Large (>1 m²)

Expand to show TLE details & history

TLE from 12 hours ago
0 ONEWEB-0697
1 61603U 24188K   25181.49657925  .00000410  00000-0  11223-2 0  9999
2 61603  87.8817  91.1922 0002760  70.9778 289.1649 13.11417772 38356
Epoch: 2025-06-30T11:55Z
TLE epoch observation values (Epoch: 2025-06-30T11:55:04.447Z)
Latitude
0.00002°
Longitude
-6.38188°
Altitude
1,219.881 km
Speed
7.245 km/s
True Right ascension
06h 04m 46s
True Declination
0° 00' 00"
Sunlit
Object was in daylight at epoch
Visualization orbit readout
Latitude
-47.99667°
Longitude
175.85937°
Altitude
1,238.241 km
Speed
7.234 km/s
Apparent Right ascension
20h 53m 02s
Apparent Declination
-52° 03' 31"
Sunlit
Object is in full shadow
Visualization observer readout
Local Sidereal Time
11:40:29
Azimuth
127.164° SE
Elevation
-59.008°
Doppler factor
1
Orbital elements
Apogee altitude
1,216.893 km
Perigee altitude
1,212.702 km
Semi-major axis
7,592.935 km
Eccentricity
0.00028
Inclination
87.8817°
RAAN
91.1922°
Arg. of periapsis
70.9778°
True anomaly
Unknown
Mean anomaly
289.1649°
Eccentric anomaly
Unknown
Mean motion
3.28041 °/min
Orbital period
109.74 mins
BSTAR
0.0011223
Loading maneuver chart data...
Loading SW <> Apogee altitude chart data...
Loading historical data...
Loading historical data...
Loading historical data...
Loading historical data...
Loading historical data...
Loading historical data...
Loading historical data...

ONEWEB-0697 Visibility forecast

Observer location: undefined°, undefined°

Span
Click to sort rows by Start time (UTC) header in descending order
Start Az.
Max El. time (UTC)
Max El. Az.
Max El.
End time (UTC)
End Az.
11 mins2025-07-01 05:00:45.096Z24.922° NE2025-07-01 05:05:45.096Z73.03° E25.464°2025-07-01 05:11:45.096Z133.085° SE
12 mins2025-07-01 06:50:45.096Z344.973° N2025-07-01 06:56:45.096Z264.801° W37.546°2025-07-01 07:02:45.096Z205.166° SW
10 mins2025-07-01 17:20:45.096Z130.218° SE2025-07-01 17:25:45.096Z74.961° E27.839°2025-07-01 17:30:45.096Z24.55° NE
12 mins2025-07-01 19:09:45.096Z210.821° SW2025-07-01 19:14:45.096Z268.704° W35.37°2025-07-01 19:21:45.096Z347.461° N
|